Hourly Weather Cauterets

Today, 13 June, Sunday

Time Temperature Precipitation Wind Pressure Humidity
00:00 +7°C° 0 mm 2 mps 589 mmHg 81%
01:00 +7°C° 0 mm 2 mps 588 mmHg 79%
02:00 +7°C° 0 mm 2 mps 588 mmHg 77%
03:00 +7°C° 0 mm 2 mps 588 mmHg 76%
04:00 +8°C° 0 mm 1 mps 589 mmHg 74%
05:00 +9°C° 0 mm 1 mps 589 mmHg 72%
06:00 +10°C° 0 mm 1 mps 590 mmHg 70%
07:00 +12°C° 0 mm 1 mps 591 mmHg 62%
08:00 +15°C° 0 mm 1 mps 592 mmHg 53%
09:00 +18°C° 0 mm 1 mps 592 mmHg 45%
10:00 +19°C° 0 mm 1 mps 593 mmHg 43%
11:00 +18°C° 0 mm 2 mps 593 mmHg 41%
12:00 +19°C° 0 mm 2 mps 593 mmHg 39%
13:00 +19°C° 0 mm 2 mps 593 mmHg 40%
14:00 +19°C° 0 mm 2 mps 592 mmHg 42%
15:00 +19°C° 0 mm 2 mps 592 mmHg 44%
16:00 +18°C° 0.1 mm 2 mps 592 mmHg 51%
17:00 +18°C° 0.1 mm 1 mps 591 mmHg 59%
18:00 +16°C° 0.1 mm 1 mps 591 mmHg 67%
19:00 +14°C° 0 mm 1 mps 590 mmHg 70%
20:00 +13°C° 0 mm 1 mps 589 mmHg 72%
21:00 +10°C° 0 mm 2 mps 589 mmHg 75%
22:00 +10°C° 0 mm 2 mps 589 mmHg 72%
23:00 +10°C° 0 mm 2 mps 589 mmHg 69%

Tomorrow, 14 June, Monday

Time Temperature Precipitation Wind Pressure Humidity
00:00 +10°C° 0 mm 2 mps 588 mmHg 65%
01:00 +9°C° 0 mm 2 mps 588 mmHg 64%
02:00 +9°C° 0 mm 2 mps 588 mmHg 63%
03:00 +9°C° 0 mm 2 mps 588 mmHg 61%
04:00 +11°C° 0 mm 1 mps 588 mmHg 63%
05:00 +11°C° 0 mm 1 mps 589 mmHg 66%
06:00 +12°C° 0 mm 1 mps 589 mmHg 68%
07:00 +14°C° 0 mm 1 mps 590 mmHg 61%
08:00 +16°C° 0 mm 1 mps 591 mmHg 54%
09:00 +19°C° 0 mm 1 mps 591 mmHg 47%
10:00 +20°C° 0 mm 1 mps 592 mmHg 45%
11:00 +19°C° 0 mm 2 mps 592 mmHg 43%
12:00 +20°C° 0 mm 2 mps 592 mmHg 41%
13:00 +18°C° 1.7 mm 2 mps 592 mmHg 49%
14:00 +17°C° 1.7 mm 2 mps 591 mmHg 58%
15:00 +14°C° 1.7 mm 3 mps 590 mmHg 67%
16:00 +13°C° 1.1 mm 3 mps 590 mmHg 71%
17:00 +11°C° 1.1 mm 3 mps 589 mmHg 76%
18:00 +9°C° 1.1 mm 3 mps 589 mmHg 80%
19:00 +9°C° 0.1 mm 2 mps 588 mmHg 76%
20:00 +9°C° 0.1 mm 2 mps 588 mmHg 71%
21:00 +8°C° 0.1 mm 2 mps 588 mmHg 67%
22:00 +8°C° 0.1 mm 2 mps 588 mmHg 70%
23:00 +7°C° 0.1 mm 2 mps 588 mmHg 72%

Day after tomorrow, 15 June, Tuesday

Time Temperature Precipitation Wind Pressure Humidity
00:00 +7°C° 0.1 mm 2 mps 587 mmHg 75%
01:00 +7°C° 0 mm 2 mps 587 mmHg 76%
02:00 +7°C° 0 mm 2 mps 587 mmHg 76%
03:00 +7°C° 0 mm 2 mps 587 mmHg 77%
04:00 +9°C° 0 mm 1 mps 587 mmHg 76%
05:00 +10°C° 0 mm 1 mps 588 mmHg 74%
06:00 +11°C° 0 mm 1 mps 588 mmHg 73%
07:00 +13°C° 0 mm 1 mps 589 mmHg 66%
08:00 +15°C° 0 mm 1 mps 590 mmHg 59%
09:00 +18°C° 0 mm 1 mps 590 mmHg 51%
10:00 +18°C° 0.2 mm 1 mps 590 mmHg 51%
11:00 +18°C° 0.2 mm 2 mps 590 mmHg 50%
12:00 +18°C° 0.2 mm 2 mps 591 mmHg 49%
13:00 +18°C° 0.5 mm 2 mps 590 mmHg 51%
14:00 +18°C° 0.5 mm 2 mps 590 mmHg 52%
15:00 +18°C° 0.5 mm 2 mps 590 mmHg 53%
16:00 +17°C° 0.5 mm 2 mps 589 mmHg 60%
17:00 +15°C° 0.5 mm 1 mps 588 mmHg 67%
18:00 +14°C° 0.5 mm 1 mps 588 mmHg 74%
19:00 +13°C° 0 mm 2 mps 587 mmHg 74%
20:00 +12°C° 0 mm 2 mps 587 mmHg 75%
21:00 +10°C° 0 mm 2 mps 587 mmHg 75%
22:00 +10°C° 0 mm 2 mps 586 mmHg 74%
23:00 +9°C° 0 mm 2 mps 586 mmHg 73%

16 June, Wednesday

Time Temperature Precipitation Wind Pressure Humidity
00:00 +9°C° 0 mm 2 mps 586 mmHg 72%
01:00 +9°C° 0 mm 2 mps 585 mmHg 70%
02:00 +9°C° 0 mm 2 mps 585 mmHg 69%
03:00 +9°C° 0 mm 2 mps 585 mmHg 67%
04:00 +9°C° 0 mm 2 mps 585 mmHg 66%
05:00 +10°C° 0 mm 2 mps 585 mmHg 66%
06:00 +12°C° 0 mm 2 mps 585 mmHg 65%
07:00 +14°C° 0 mm 2 mps 586 mmHg 57%
08:00 +16°C° 0 mm 2 mps 587 mmHg 49%
09:00 +18°C° 0 mm 2 mps 587 mmHg 41%
10:00 +18°C° 0 mm 2 mps 587 mmHg 41%
11:00 +19°C° 0 mm 2 mps 588 mmHg 41%
12:00 +19°C° 0 mm 2 mps 588 mmHg 41%
13:00 +18°C° 0.1 mm 2 mps 587 mmHg 45%
14:00 +18°C° 0.1 mm 2 mps 587 mmHg 49%
15:00 +17°C° 0.1 mm 3 mps 586 mmHg 53%
16:00 +16°C° 0.1 mm 2 mps 585 mmHg 57%
17:00 +15°C° 0.1 mm 2 mps 585 mmHg 61%
18:00 +15°C° 0.1 mm 2 mps 584 mmHg 65%
19:00 +13°C° 0.2 mm 2 mps 584 mmHg 69%
20:00 +11°C° 0.2 mm 3 mps 583 mmHg 72%
21:00 +9°C° 0.2 mm 3 mps 583 mmHg 76%
22:00 +8°C° 0.7 mm 3 mps 583 mmHg 80%
23:00 +8°C° 0.7 mm 3 mps 583 mmHg 83%

17 June, Thursday

Time Temperature Precipitation Wind Pressure Humidity
00:00 +8°C° 0.7 mm 2 mps 583 mmHg 87%
01:00 +7°C° 0 mm 2 mps 582 mmHg 85%
02:00 +7°C° 0 mm 2 mps 582 mmHg 83%
03:00 +7°C° 0 mm 2 mps 581 mmHg 81%
04:00 +7°C° 0.1 mm 2 mps 581 mmHg 81%
05:00 +8°C° 0.1 mm 2 mps 581 mmHg 81%
06:00 +9°C° 0.1 mm 1 mps 581 mmHg 81%
07:00 +9°C° 2.9 mm 1 mps 581 mmHg 85%
08:00 +8°C° 2.9 mm 1 mps 581 mmHg 89%
09:00 +7°C° 2.9 mm 0 mps 581 mmHg 93%
10:00 +7°C° 2.6 mm 0 mps 580 mmHg 93%
11:00 +6°C° 2.6 mm 0 mps 580 mmHg 94%
12:00 +6°C° 2.6 mm 0 mps 580 mmHg 94%
13:00 +7°C° 2.7 mm 1 mps 580 mmHg 94%
14:00 +7°C° 2.7 mm 1 mps 580 mmHg 93%
15:00 +7°C° 2.7 mm 1 mps 581 mmHg 93%
16:00 +8°C° 0.1 mm 1 mps 581 mmHg 92%
17:00 +8°C° 0.1 mm 1 mps 581 mmHg 91%
18:00 +8°C° 0.1 mm 1 mps 581 mmHg 89%
19:00 +7°C° 0 mm 1 mps 581 mmHg 91%
20:00 +7°C° 0 mm 1 mps 581 mmHg 92%
21:00 +6°C° 0 mm 1 mps 581 mmHg 93%
22:00 +6°C° 0 mm 1 mps 581 mmHg 93%
23:00 +6°C° 0 mm 1 mps 581 mmHg 92%

18 June, Friday

Time Temperature Precipitation Wind Pressure Humidity
00:00 +6°C° 0 mm 1 mps 581 mmHg 92%
01:00 +5°C° 0.2 mm 1 mps 581 mmHg 92%
02:00 +4°C° 0.2 mm 2 mps 581 mmHg 92%
03:00 +4°C° 0.2 mm 2 mps 580 mmHg 92%
04:00 +5°C° 0 mm 2 mps 580 mmHg 89%
05:00 +6°C° 0 mm 2 mps 581 mmHg 86%
06:00 +6°C° 0 mm 2 mps 581 mmHg 83%
07:00 +8°C° 0.1 mm 2 mps 581 mmHg 76%
08:00 +9°C° 0.1 mm 2 mps 582 mmHg 69%
09:00 +12°C° 0.1 mm 2 mps 582 mmHg 62%
10:00 +12°C° 0.5 mm 2 mps 582 mmHg 66%
11:00 +12°C° 0.5 mm 2 mps 582 mmHg 70%
12:00 +10°C° 0.5 mm 2 mps 582 mmHg 74%
13:00 +10°C° 1.4 mm 2 mps 582 mmHg 79%
14:00 +9°C° 1.4 mm 2 mps 581 mmHg 84%
15:00 +8°C° 1.4 mm 2 mps 581 mmHg 89%
16:00 +8°C° 0.9 mm 2 mps 580 mmHg 89%
17:00 +7°C° 0.9 mm 2 mps 580 mmHg 89%
18:00 +7°C° 0.9 mm 2 mps 580 mmHg 89%
19:00 +6°C° 1 mm 2 mps 580 mmHg 90%
20:00 +5°C° 1 mm 2 mps 580 mmHg 91%
21:00 +3°C° 1 mm 3 mps 580 mmHg 91%
22:00 +3°C° 0.4 mm 3 mps 580 mmHg 92%
23:00 +3°C° 0.4 mm 3 mps 579 mmHg 92%
Show more

We Need Your Consent

Meteoprog and our Service Providers may store and access personal data such as cookies, device identifiers or other similar technologies on your device and process such data to personalise content and ads, as well as provide social media features and to analyse the traffic.

  • Store and/or access information on your device

    Cookies, device identifiers or other information can be stored or accessed on your device for the purposes indicated above.

  • Personalised ads and content, ad and content measurement, audience insights, and products development

    Ads and content can be personalised based on a profile. More data can be added to better personalise ads and content. Ad and content performance can be measured. Insights about the audience who saw the ads and content can be derived. Such data can be used to develop or improve user’s experience, systems and software.

By clicking ‘I Agree’ you will allow the use of indicated cookies, device identifiers, web beacons or other similar technologies. Your settings can be changed in the browser on your device.

For certain purposes, legitimate interests may be relied on, rather than consent. You can read more about this in our Privacy and Cookie Policy.